ERS 1 DEB

Satellite information

Favourite Embed

Satellite Type and Status

DEBRISIN ORBIT

Key statistics

Satellite ERS 1 DEB at a glance.

Uptime

12519

Days in orbit

Revolutions

≈ 14.7

Per day

Orbit

SSO

Sun Synchronous Orbit

Inclination

98.5

Latest

Satellite identification and parameters

Extended collection of information and parameters for ERS 1 DEB.

Object identification

Identified? True

Debris? True

Object name: ERS 1 DEB

International designator: 1991-050R

Object number (NORAD): 35262

Object ID (CCSDS): 35262

Country: EUROPEAN SPACE AGENCY (ESA)

Current information (Y/N): Y

RCS size: SMALL

Orbital parameters

Period: 97.981 minutes

Inclination: 98.4633 deg

SMA: 7040.237 km

Apoapsis: 673.75 km

Periapsis: 650.454 km

RAAN: 310.8749 deg

Eccentricy: 0.00165449

Argument of periapsis: 57.7065 deg

Mean anomaly: 7.5339 deg

Mean motion: 14.69676721 rev/day

Mean motion (dot): 0.00006536 rev/day2

B* drag term: 0.0011039047 1/REarth

Two-line elements (TLE)

Creation date: Oct. 25, 2025, 3:11 a.m.

Reference frame: TEME

Reference center: EARTH

Epoch: Oct. 24, 2025, 4:45 p.m. UTC

TLE line 0: 0 ERS 1 DEB

TLE line 1: 1 35262U 91050R 25297.69860872 .00006536 00000-0 11039-2 0 9990

TLE line 2: 2 35262 98.4633 310.8749 0016545 57.7065 7.5339 14.69676721804532

Live tracking on map

Real-time ground track for satellite ERS 1 DEB.

In-orbit conjunctions

A list of the most updated potential collisions computed for object ERS 1 DEB.

Target Orbit TCA Probability of collision Miss distance Type
PEGASUS DEB LEO 2024-09-11 02:44:20 0.0003349889 45.0 (m) DEBRIS
LARETS SSO 2024-06-03 18:25:24 0.0003116933 774.0 (m) PAYLOAD

Associated space launch

ERS (European Remote Sensing Satellite) are a family of multi-disciplinary Earth Observation Satellites.

ERS 1 DEB was lifted into orbit during the mission ‘Ariane 40 | ERS-1’, on board a Ariane 40 space rocket.

The launch took place on July 17, 1991, 1:46 a.m. from Ariane Launch Area 2.

For more information about the launch, click the button.

Launch to space Ariane 40 | ERS-1
Ariane 40 | ERS-1

Agency: N/A

Status: Launch Successful

Launch date: July 17, 1991, 1:46 a.m. UTC

Rocket: Ariane 40

Launch pad: Ariane Launch Area 2

Location: Guiana Space Centre, French Guiana

...

Latest news about this satellite

There are no fresh news available about this satellite. Check back as we update our databases every day.


Newsletter sign-up

Weekly statistics, charts and insights to help you stay on top of the space industry.